EW6237 Weather Reports


time (UTC)temp
C
wind
direction
speed
KPH
gust
KPH
rain 1hr
cm
rain 24hr
cm
rain mn
cm
humidity
%
barometer
mb
20260503200011 16 201 3.2 8.0 0.00 0.00 0.00 37 1016.1
20260503194510 16 202 1.6 6.4 0.00 0.00 0.00 40 1016.6
20260503193008 16 201 1.6 9.7 0.00 0.00 0.00 40 1017.1
20260503191506 16 201 0.0 4.8 0.00 0.00 0.00 38 1017.1
20260503190003 16 201 3.2 9.7 0.00 0.00 0.00 39 1017.5
20260503184502 16 201 1.6 6.4 0.00 0.00 0.00 39 1017.7
20260503183100 16 201 1.6 11.3 0.00 0.00 0.00 35 1017.8
20260503181558 16 202 1.6 11.3 0.00 0.00 0.00 39 1017.9
20260503180105 16 202 3.2 6.4 0.00 0.00 0.00 38 1018.0
20260503174559 16 201 0.0 8.0 0.00 0.00 0.00 39 1018.4
20260503173052 16 201 0.0 4.8 0.00 0.00 0.00 37 1018.5
20260503171551 15 201 0.0 6.4 0.00 0.00 0.00 40 1018.9
20260503081523 0 201 0.0 0.0 0.00 0.00 0.00 93 1019.0
20260503071521 0 201 0.0 0.0 0.00 0.00 0.00 92 1018.7
20260503054505 0 201 0.0 0.0 0.00 0.00 0.00 90 1018.9
20260503053004 1 201 0.0 0.0 0.00 0.00 0.00 89 1019.1
20260503051502 1 201 0.0 0.0 0.00 0.00 0.00 88 1019.1
20260503050058 1 201 0.0 0.0 0.00 0.00 0.00 87 1019.1
20260503044557 1 201 0.0 0.0 0.00 0.00 0.00 85 1019.2
20260503043052 2 202 0.0 0.0 0.00 0.00 0.00 84 1019.2
20260503041549 2 201 0.0 0.0 0.00 0.00 0.00 83 1019.2
20260503040059 2 201 0.0 0.0 0.00 0.00 0.00 80 1019.2
20260503034546 2 201 0.0 0.0 0.00 0.00 0.00 79 1019.2
20260503033044 2 201 0.0 0.0 0.00 0.00 0.00 80 1019.2
20260503031550 2 201 0.0 0.0 0.00 0.00 0.00 80 1019.2
20260503030046 3 202 0.0 0.0 0.00 0.00 0.00 80 1019.1
20260503024536 3 202 0.0 0.0 0.00 0.00 0.00 80 1019.0
20260503023035 3 201 0.0 0.0 0.00 0.00 0.00 77 1018.8
20260503021533 4 201 0.0 0.0 0.00 0.00 0.00 76 1018.7
20260503020030 4 202 0.0 0.0 0.00 0.00 0.00 73 1018.4
20260503014529 4 201 0.0 0.0 0.00 0.00 0.00 70 1018.3
20260503013032 5 201 0.0 0.0 0.00 0.00 0.00 68 1018.0
20260503011528 5 201 0.0 0.0 0.00 0.00 0.00 70 1017.7
20260503010031 6 202 0.0 0.0 0.00 0.00 0.00 64 1017.6
20260503004527 7 202 0.0 0.0 0.00 0.00 0.00 60 1017.4
20260503003026 8 202 0.0 1.6 0.00 0.00 0.00 55 1017.3
20260503001526 9 202 0.0 3.2 0.00 0.00 0.00 53 1017.0
20260503000024 10 202 0.0 4.8 0.00 0.00 0.00 51 1016.9
20260502234528 10 202 0.0 3.2 0.00 0.00 0.00 50 1016.8
20260502233025 10 201 1.6 4.8 0.00 0.00 0.00 48 1016.6
20260502231523 11 202 0.0 6.4 0.00 0.00 0.00 51 1016.6
20260502230026 11 202 1.6 8.0 0.00 0.00 0.00 46 1016.6
20260502224522 11 201 0.0 4.8 0.00 0.00 0.00 46 1016.5
20260502223020 11 202 0.0 6.4 0.00 0.00 0.00 48 1016.6
20260502221520 11 201 0.0 4.8 0.00 0.00 0.00 48 1016.6
20260502220020 11 201 0.0 3.2 0.00 0.00 0.00 47 1016.5
20260502214519 12 201 0.0 3.2 0.00 0.00 0.00 48 1016.4
20260502213018 12 201 0.0 3.2 0.00 0.00 0.00 49 1016.2
20260502211516 12 201 0.0 6.4 0.00 0.00 0.00 49 1016.4
20260502210014 11 201 0.0 3.2 0.00 0.00 0.00 50 1016.5
20260502204514 12 201 0.0 6.4 0.00 0.00 0.00 49 1016.5
20260502203012 12 202 0.0 4.8 0.00 0.00 0.00 52 1016.6
20260502201512 11 201 1.6 8.0 0.00 0.00 0.00 50 1016.7